星链-35155(STARLINK-35155)

导读 | 豆包AI

STARLINK-35155是美国太空探索技术公司(SpaceX)于2025年10月8日成功发射的星链卫星,隶属于Starlink Group 11-17任务组,运行在近地轨道,近地点约355公里,远地点约357公里。作为星链(Starlink)全球卫星互联网项目的组成部分,该卫星依托Starlink V1.0平台,助力为全球尤其是偏远地区提供高速低延迟互联网服务,进一步扩大星链网络覆盖规模,推动全球互联网普及,同时可支持军事、航空等领域通信需求。

基本信息
目录编号:
65935
目录名称:
STARLINK-35155
国际标识:
2025-225AB
轨道中心:
EARTH
卫星名称:
星链-35155
卫星全名:
星链-35155(STARLINK-35155)
卫星状态:
在轨 (已飞行203 天)
发射日期:
2025-10-08 UTC
国别 :
美国 (US)
星等 :
--
轨道信息
数据来源 国际轨道数据
星历时间: 2026-04-29T05:38:31+0800
9小时前
查看轨道信息
半长轴: 6853.356km
偏心率: 0.0000921
轨道倾角: 53.158°
近地点辐角 82.573°
升交点赤经 292.599°
平近点角 277.537°
近地点: 474.587km
远地点: 475.851km
周期: 94.105分钟
每日圈数: 15.301989
详细信息
固有亮度:
5
最大亮度:
2.5
卫星平台:
Starlink V1.0
覆盖范围:
全球
运营商:
太空探索技术公司
运营商所在国:
美国
制造商(研发单位):
太空探索技术公司
制造商所在国:
美国
使用方式:
暂无
卫星简介
Starlink 计划是 SpaceX 推出的全球卫星互联网项目,通过发射低轨道卫星,为全球尤其是偏远地区提供高速、低延迟的互联网服务。自 2019 年起,Starlink 已部署数千颗卫星,旨在缩小全球数字鸿沟,推动互联网普及。该项目还为军事、航空等行业提供通信支持,带来广泛经济效益。
2D轨道图
3D轨道图
轨道高度分析图
轨道倾角分析图
轨道综合分析图
查看轨道综合分析图